Content
SEND FEEDBACK

Daily
Averages
Monthly
Summary
United States of America

MARKSVILLE, LOUISIANA


Home > North America > United States > Louisiana
Elevation: 78 feet     Latitude: 31 05N     Longitude: 092 04W

WEATHER
 
SELECT A DAY
Number of Records: 223,862;   Date Range: 1/1/95 - 12/16/14
 
SHARE

PRINT THIS DATA

[ ← Previous Day ]
WEATHER ALMANAC - JANUARY 23, 2013
[ Next Day → ]
[ °C ]   °F
Weather ElementAverageHighLow
Temperature50.7 °F73.9 °F (2:53 pm)26.6 °F (11:50 am)
Dewpoint42.4 °F52 °F (7:53 pm)3.2 °F (11:50 am)
Humidity77.4 %97 % (8:53 am)37 % (11:50 am)
Barometer30.31 in30.37 in (9:24 am)30.24 in (5:53 pm)
Wind Speed3.4 mph12.7 mph (11:50 am)
Wind Gust24.2 mph (11:50 am)
Weather ElementAverage
Visibility7.3 mi
Wind DirectionESE (106.8 °)

Weather ElementTotal
Precipitation---
Heating Degree Days14.8 (Base 65)
Growing Degree Days0.3 (Base 50)
Averaged from 34 records on January 23, 2013
WEATHER CONDITIONS BREAKOUT
WIND DIRECTION BREAKOUT
WEATHER BY HOUR - JANUARY 23, 2013
[ °C ]   °F
Local TimeTemperatureDewpointHumidityBarometerVisibilityWind DirectionWind SpeedGust SpeedPrecipitationEventsConditions
1:53 AM39.9 °F37.0 °F89 %30.30 in8.0 miCalmClear
2:53 AM37.9 °F36.0 °F93 %30.31 in5.0 miCalmClear
3:23 AM37.4 °F35.6 °F93 %30.31 in2.5 miCalmClear
3:31 AM37.4 °F35.6 °F93 %30.31 in7.0 miCalmClear
3:53 AM37.9 °F36.0 °F93 %30.30 in9.0 miCalmClear
4:53 AM37.9 °F36.0 °F93 %30.31 in8.0 miCalmClear
5:53 AM39.0 °F37.0 °F93 %30.34 in7.0 miCalmOvercast
6:53 AM39.9 °F37.0 °F89 %30.34 in10.0 miCalmOvercast
7:06 AM39.2 °F37.4 °F93 %30.34 in10.0 miCalmMostly Cloudy
7:19 AM39.2 °F37.4 °F93 %30.35 in10.0 miCalmMostly Cloudy
7:43 AM39.2 °F37.4 °F93 %30.35 in1.5 miCalmOvercast
7:48 AM39.2 °F37.4 °F93 %30.35 in0.2 miCalmFogFog
7:53 AM39.9 °F37.9 °F93 %30.35 in0.2 miCalmFogFog
8:53 AM45.0 °F44.1 °F97 %30.36 in0.2 miCalmFogFog
9:03 AM46.4 °F44.6 °F93 %30.36 in0.2 miCalmFogFog
9:19 AM48.2 °F46.4 °F93 %30.36 in1.0 miSSW (200°)3.5 mphOvercast
9:24 AM50.0 °F48.2 °F94 %30.37 in4.0 miSSW (210°)3.5 mphMostly Cloudy
9:34 AM50.0 °F48.2 °F94 %30.37 in10.0 miSW (220°)4.6 mphMostly Cloudy
9:53 AM53.1 °F48.9 °F86 %30.37 in10.0 miSW (220°)5.8 mphMostly Cloudy
10:53 AM64.0 °F45.0 °F50 %30.36 in10.0 miSSW (200°)6.9 mphClear
11:50 AM26.6 °F3.2 °F37 %30.29 in10.0 miWNW (300°)12.7 mph24.2 mphScattered Clouds
11:53 AM66.9 °F48.0 °F51 %30.33 in10.0 miSW (220°)5.8 mphClear
12:53 PM70.0 °F48.0 °F46 %30.30 in10.0 miWSW (240°)11.5 mphMostly Cloudy
1:53 PM73.0 °F46.9 °F39 %30.27 in10.0 miSSW (210°)8.1 mphPartly Cloudy
2:53 PM73.9 °F46.0 °F37 %30.26 in10.0 miSW (230°)9.2 mphClear
3:53 PM73.0 °F46.0 °F38 %30.25 in10.0 miSouth (180°)11.5 mphClear
4:53 PM71.1 °F46.9 °F42 %30.25 in10.0 miSSW (210°)9.2 mphClear
5:53 PM66.0 °F50.0 °F56 %30.24 in10.0 miSSW (200°)4.6 mphClear
6:53 PM63.0 °F51.1 °F65 %30.25 in10.0 miSouth (190°)5.8 mphClear
7:53 PM62.1 °F52.0 °F70 %30.26 in10.0 miSSW (200°)4.6 mphClear
8:53 PM59.0 °F52.0 °F78 %30.27 in10.0 miSouth (190°)3.5 mphClear
9:53 PM57.0 °F52.0 °F83 %30.27 in10.0 miSSW (210°)4.6 mphClear
10:53 PM52.0 °F48.9 °F89 %30.27 in10.0 miCalmClear
11:53 PM51.1 °F48.9 °F92 %30.27 in6.0 miCalmClear
Hourly data recorded from KESF, located miles away from Marksville, Louisiana







STORIES FROM OUR PARTNERS